Find Starlink 30517

NORAD ID: 57995 Int'l Des: 2023-153 Owner: SPXS Country: US Constellation: starlink operational
LEOCIRCULAR

現在のビュー

3D地球を読み込み中...

About Starlink 30517

Starlink 30517 (NORAD 57995) is a starlink constellation satellite (v2 mini) launched Oct 5, 2023 by SPXS of US. It operates in LEO, CIRCULAR orbit with a mass of 730.00 kg.

Starlink 30517について

説明を読み込み中...

次回通過

Passes for default location (London). Set your location on the main map for personalized predictions.

高度履歴

Loading altitude history...

軌道要素

1 57995U 23153E 26167.88226833 -.00001551 00000-0 -46867-4 0 9990
2 57995 43.0004 227.1206 0001194 262.9563 97.1153 15.27560874150069
Epoch: Jun 16, 2026 • Age: 30 hours

現在のステータス

高度 484.1 km
速度 7.63 km/s
衛星直下点 29.19°N, 57.6°W
打ち上げ日 Oct 5, 2023
運用期間 2.6 years
タイプ internet

技術仕様

分類 Payload
質量 730.00 kg
乾燥質量 700.00 kg
総質量 730.00 kg
長さ 0.30 m
直径 4.10 m
スパン 29.00 m
形状 Box + pan
製造者 SPXS
バスタイプ Starlink V2M
フェーズステータス In Orbit
所有者/国 SPXS/US

Most Searched